Retour au catalogue

RUBIN 3/SL-8

ActifScienceSSO
NORAD 27561·PAYLOAD·🇩🇪 Germany

Lancé Nov 28, 2002 depuis Plesetsk Cosmodrome

Loading…

Prochains Passages (prochaines 24 heures)

TLE

FraisSource: Space-Track

Époque: Sep 14, 2026, 13:32 UTC

1 27561U 02054C   26257.56454738  .00000229  00000-0  59383-4 0  9991
2 27561  98.4441 119.7201 0043373 212.4453 147.4078 14.58625180263704

Suivez RUBIN 3/SL-8 en temps réel avec AllMySat

Download on the App Store